WA9AFM-10 Weather Reports


Display with metric or nautical units.
time (UTC)temp
F
wind
direction
speed
MPH
gust
MPH
rain 1hr
in
rain 24hr
in
rain mn
in
humidity
%
barometer
mb
20260508161149 74 47 2.0 0.0 0.00 0.00 0.00 53 1007.0
20260508154147 72 61 1.0 0.0 0.00 0.00 0.00 57 1007.4
20260508151148 70 52 0.0 0.0 0.00 0.00 0.00 61 1007.8
20260508141149 66 241 4.0 0.0 0.00 0.00 0.00 66 1008.2
20260508134147 63 46 0.0 0.0 0.00 0.00 0.00 71 1008.6
20260508131148 59 329 0.0 0.0 0.00 0.00 0.00 79 1008.7
20260508121149 54 270 0.0 0.0 0.00 0.00 0.00 86 1008.4
20260508115746 53 270 0.0 0.0 0.00 0.00 0.00 86 1008.4
20260508114147 53 270 0.0 0.0 0.00 0.00 0.00 86 1008.4
20260508111149 53 280 0.0 0.0 0.00 0.00 0.00 86 1008.4
20260508104148 53 53 0.0 0.0 0.00 0.00 0.00 84 1008.2
20260508101150 54 125 0.0 0.0 0.00 0.00 0.00 82 1007.9
20260508094148 55 50 1.0 0.0 0.00 0.00 0.00 81 1008.0
20260508091148 55 57 0.0 0.0 0.00 0.00 0.00 79 1007.9
20260508084148 56 355 0.0 0.0 0.00 0.00 0.00 78 1008.0
20260508081149 56 325 0.0 0.0 0.00 0.00 0.00 76 1008.2
20260508074250 56 320 0.0 0.0 0.00 0.00 0.00 75 1008.5
20260508074156 56 320 0.0 0.0 0.00 0.00 0.00 75 1008.5
20260508071149 57 6 0.0 0.0 0.00 0.00 0.00 72 1008.9
20260508064148 58 320 0.0 0.0 0.00 0.00 0.00 70 1009.3
20260508054148 60 331 4.0 0.0 0.00 0.00 0.00 63 1009.3
20260508051149 60 64 0.0 0.0 0.00 0.00 0.00 62 1009.4
20260508044149 60 36 0.0 0.0 0.00 0.00 0.00 62 1009.7
20260508041149 60 347 0.0 0.0 0.00 0.00 0.00 60 1009.8
20260508031148 63 37 0.0 0.0 0.00 0.00 0.00 54 1009.7
20260508024148 63 323 0.0 0.0 0.00 0.00 0.00 53 1009.6
20260508021149 64 331 0.0 0.0 0.00 0.00 0.00 50 1009.4
20260508014147 66 318 0.0 0.0 0.00 0.00 0.00 46 1009.2
20260508011150 69 291 0.0 0.0 0.00 0.00 0.00 43 1009.0
20260508001148 74 64 0.0 0.0 0.00 0.00 0.00 34 1008.7
20260507234149 77 318 0.0 0.0 0.00 0.00 0.00 32 1008.7
20260507231149 78 69 0.0 0.0 0.00 0.00 0.00 30 1009.1
20260507224148 78 45 0.0 0.0 0.00 0.00 0.00 30 1009.3
20260507214148 77 99 0.0 0.0 0.00 0.00 0.00 32 1009.8
20260507211150 76 64 0.0 0.0 0.00 0.00 0.00 35 1010.3
20260507201148 74 54 7.0 0.0 0.00 0.00 0.00 38 1011.4
20260507194148 73 80 0.0 0.0 0.00 0.00 0.00 39 1011.9
20260507191149 74 55 0.0 0.0 0.00 0.00 0.00 40 1012.5
20260507181148 71 111 0.0 0.0 0.00 0.00 0.00 41 1013.4
20260507174148 70 51 1.0 0.0 0.00 0.00 0.00 43 1013.9
20260507171149 69 16 2.0 0.0 0.00 0.00 0.00 43 1014.5